TimeCST,TemperatureF,Dew PointF,Humidity,Sea Level PressureIn,VisibilityMPH,Wind Direction,Wind SpeedMPH,Gust SpeedMPH,PrecipitationIn,Events,Conditions,WindDirDegrees,DateUTC
12:03 AM,51.8,50.0,94,30.08,2.5,WSW,4.6,-,N/A,Rain,Rain,250,2012-11-12 06:03:00
12:07 AM,51.8,50.0,94,30.09,3.0,SW,6.9,-,0.06,Rain,Rain,230,2012-11-12 06:07:00
12:24 AM,51.8,50.0,94,30.07,2.5,Calm,Calm,-,N/A,Rain,Rain,0,2012-11-12 06:24:00
12:40 AM,51.8,48.2,88,30.06,4.0,WNW,4.6,-,0.20,Rain,Rain,300,2012-11-12 06:40:00
12:53 AM,51.1,48.9,92,30.10,5.0,WNW,15.0,18.4,0.22,Rain,Rain,300,2012-11-12 06:53:00
1:05 AM,46.4,42.8,87,30.12,6.0,NW,13.8,23.0,0.03,Rain,Rain,310,2012-11-12 07:05:00
1:19 AM,46.4,42.8,87,30.09,7.0,NW,19.6,28.8,0.05,Rain,Rain,320,2012-11-12 07:19:00
1:53 AM,45.0,39.9,82,30.10,10.0,NW,18.4,27.6,0.08,Rain,Light Rain,320,2012-11-12 07:53:00
2:53 AM,44.1,37.9,79,30.16,10.0,NW,19.6,29.9,0.01,,Overcast,320,2012-11-12 08:53:00
3:04 AM,42.8,37.4,81,30.16,10.0,NW,18.4,27.6,N/A,,Overcast,310,2012-11-12 09:04:00
3:26 AM,42.8,35.6,76,30.17,10.0,NNW,18.4,25.3,N/A,,Overcast,330,2012-11-12 09:26:00
3:53 AM,41.0,35.1,79,30.17,10.0,NNW,12.7,20.7,N/A,,Overcast,330,2012-11-12 09:53:00
4:53 AM,39.0,32.0,76,30.25,10.0,NW,12.7,-,N/A,,Overcast,310,2012-11-12 10:53:00
5:53 AM,37.0,28.0,70,30.28,10.0,NW,15.0,-,N/A,,Scattered Clouds,310,2012-11-12 11:53:00
6:53 AM,35.1,27.0,72,30.33,10.0,NW,6.9,-,N/A,,Clear,310,2012-11-12 12:53:00
7:53 AM,36.0,27.0,70,30.36,10.0,NNW,9.2,-,N/A,,Clear,330,2012-11-12 13:53:00
8:53 AM,39.0,23.0,53,30.38,10.0,NNW,11.5,23.0,N/A,,Clear,340,2012-11-12 14:53:00
9:53 AM,43.0,25.0,49,30.41,10.0,NNW,10.4,-,N/A,,Clear,340,2012-11-12 15:53:00
10:53 AM,45.0,24.1,44,30.43,10.0,WNW,11.5,-,N/A,,Clear,300,2012-11-12 16:53:00
11:53 AM,48.0,21.9,36,30.40,10.0,WNW,11.5,16.1,N/A,,Clear,290,2012-11-12 17:53:00
12:53 PM,48.9,21.9,35,30.38,10.0,NW,10.4,-,N/A,,Clear,320,2012-11-12 18:53:00
1:53 PM,51.1,21.0,31,30.36,10.0,Variable,5.8,-,N/A,,Clear,0,2012-11-12 19:53:00
2:53 PM,52.0,19.9,28,30.37,10.0,Variable,3.5,-,N/A,,Clear,0,2012-11-12 20:53:00
3:53 PM,51.1,19.9,29,30.38,10.0,WNW,5.8,-,N/A,,Clear,300,2012-11-12 21:53:00
4:53 PM,48.0,21.9,36,30.40,10.0,West,6.9,-,N/A,,Clear,270,2012-11-12 22:53:00
5:53 PM,46.9,23.0,39,30.42,10.0,West,3.5,-,N/A,,Clear,280,2012-11-12 23:53:00
6:53 PM,45.0,21.9,40,30.44,10.0,WNW,5.8,-,N/A,,Clear,300,2012-11-13 00:53:00
7:53 PM,44.1,21.9,42,30.45,10.0,WNW,4.6,-,N/A,,Clear,300,2012-11-13 01:53:00
8:53 PM,42.1,21.9,45,30.46,10.0,WNW,3.5,-,N/A,,Clear,300,2012-11-13 02:53:00
9:53 PM,37.0,26.1,65,30.48,10.0,Calm,Calm,-,N/A,,Clear,0,2012-11-13 03:53:00
10:53 PM,35.1,27.0,72,30.48,10.0,Calm,Calm,-,N/A,,Clear,0,2012-11-13 04:53:00
11:53 PM,33.1,28.0,82,30.49,10.0,Calm,Calm,-,N/A,,Clear,0,2012-11-13 05:53:00